Overview Statistics Trail Chart Weather Telemetry Raw packets
 

This is the latest recevied weather packets stored in our database for station/object KC1BRV. If no packets are shown the sender has not sent any weather packets the latest 10 day(s).

<< 48 49 50 51 52 53 54 >>
Time Temp. Humidity Pressure Rain* Wind** Luminosity Snow
1788284654 16.11° C 96% 1018.6 hPa 0 mm - 20 W/m² -
1788284350 16.67° C 96% 1018.6 hPa 0 mm - 18 W/m² -
1788284045 16.67° C 96% 1018.6 hPa 0 mm - 19 W/m² -
1788283741 16.67° C 96% 1018.3 hPa 0 mm - 30 W/m² -
1788283441 16.67° C 96% 1018.3 hPa 0 mm - 49 W/m² -
1788283139 16.67° C 96% 1018.3 hPa 0 mm - 39 W/m² -
1788282837 16.67° C 96% 1018.3 hPa 0 mm - 49 W/m² -
1788282536 16.67° C 97% 1018 hPa 0 mm - 90 W/m² -
1788282232 16.67° C 96% 1017.8 hPa 0 mm - 107 W/m² -
1788281931 16.67° C 97% 1018 hPa 0 mm - 98 W/m² -
1788281625 16.67° C 97% 1017.8 hPa 0 mm - 88 W/m² -
1788281323 16.67° C 97% 1018.4 hPa 0 mm - 67 W/m² -
1788281018 16.67° C 97% 1018.1 hPa 0 mm - 93 W/m² -
1788280733 16.67° C 97% 1018.3 hPa 0 mm - 122 W/m² -
1788280412 16.67° C 97% 1018.4 hPa 0 mm - 117 W/m² -
1788280107 16.67° C 98% 1018.4 hPa 0 mm - 71 W/m² -
1788279806 17.22° C 98% 1018.6 hPa 0 mm - 89 W/m² -
1788279506 17.22° C 98% 1018.6 hPa 0 mm - 93 W/m² -
1788279200 17.22° C 98% 1018.6 hPa 0 mm - 115 W/m² -
1788278896 17.22° C 98% 1018.5 hPa 0 mm - 130 W/m² -
1788278592 17.78° C 98% 1018.4 hPa 0 mm - 116 W/m² -
1788278291 17.78° C 98% 1018.6 hPa 0 mm - 94 W/m² -
1788277986 17.78° C 98% 1018.6 hPa 0 mm - 94 W/m² -
1788277682 17.78° C 98% 1018.6 hPa 1.78 mm - 88 W/m² -
1788277376 17.78° C 98% 1018.6 hPa 1.78 mm - 127 W/m² -

* Rain latest hour (hover to see other rain measurements)
** Current wind speed in m/s (hover to see current wind gust speed)